This is the latest recevied weather packets stored in our database for station/object G4CVN. If no packets are shown the sender has not sent any weather packets the latest 10 day(s).
| Time | Temp. | Humidity | Pressure | Rain* | Wind** | Luminosity | Snow |
|---|---|---|---|---|---|---|---|
| 1778155516 | 16.11° C | 63% | 1020 hPa | 0 mm | - | 315 W/m² | - |
| 1778153717 | 14.44° C | 66% | 1020 hPa | 0 mm | - | 211 W/m² | - |
| 1778149516 | 14.44° C | 67% | 1020.3 hPa | 0 mm | - | 189 W/m² | - |
| 1778148316 | 13.89° C | 68% | 1020.3 hPa | 0 mm | - | 130 W/m² | - |
| 1778146516 | 13.89° C | 68% | 1020.3 hPa | 0 mm | - | 123 W/m² | - |
| 1778144136 | 12.78° C | 74% | 1020.2 hPa | 0 mm | - | 184 W/m² | - |
| 1778141716 | 12.78° C | 75% | 1020.1 hPa | 0 mm | - | 151 W/m² | - |
| 1778138116 | 9.44° C | 94% | 1019.9 hPa | 0 mm | - | 299 W/m² | - |
| 1778135116 | 6.67° C | 94% | 1019.8 hPa | 0 mm | - | 39 W/m² | - |
| 1778120716 | 7.22° C | 88% | 1019 hPa | 0 mm | - | 0 W/m² | - |
| 1778118316 | 8.33° C | 87% | 1018.8 hPa | 0 mm | - | 0 W/m² | - |
| 1778112316 | 10° C | 84% | 1018.9 hPa | 0 mm | - | 0 W/m² | - |
| 1778111716 | 10° C | 83% | 1018.9 hPa | 0 mm | - | 0 W/m² | - |
| 1778109316 | 10° C | 83% | 1018.7 hPa | 0 mm | - | 0 W/m² | - |
| 1778108716 | 10.56° C | 83% | 1018.7 hPa | 0 mm | - | 0 W/m² | - |
| 1778103916 | 11.11° C | 77% | 1018.6 hPa | 0 mm | - | 0 W/m² | - |
| 1778102717 | 11.11° C | 76% | 1018.5 hPa | 0 mm | - | 0 W/m² | - |
| 1778096116 | 12.78° C | 67% | 1017.5 hPa | 0 mm | - | 0 W/m² | - |
| 1778087117 | 14.44° C | 62% | 1016.6 hPa | 0 mm | - | 72 W/m² | - |
| 1778086516 | 14.44° C | 61% | 1016.6 hPa | 0 mm | - | 83 W/m² | - |
| 1778085317 | 15° C | 61% | 1016.4 hPa | 0 mm | - | 531 W/m² | - |
| 1778084117 | 15° C | 60% | 1016.5 hPa | 0 mm | - | 99 W/m² | - |
| 1778082916 | 15.56° C | 59% | 1016.5 hPa | 0 mm | - | 259 W/m² | - |
| 1778077516 | 16.11° C | 55% | 1016.4 hPa | 0 mm | - | 99 W/m² | - |
| 1778075717 | 17.22° C | 51% | 1016.3 hPa | 0 mm | - | 114 W/m² | - |
* Rain latest hour (hover to see other rain measurements)
** Current wind speed in m/s (hover to see current wind gust speed)